Flag for USA

Past Weather in Dothan, Alabama, USA — Yesterday and Last 2 Weeks

Now
89 °F

Scattered clouds.


Feels Like: 99 °F
Forecast: 88 / 73 °F
Wind: 9 mph from Northwest

Location: Dothan Airport

Current Time: Jul 9, 2020 at 5:01:15 pm

Latest Report: Jul 9, 2020 at 3:53 pm


Visibility: 10 mi

Pressure: 29.92 "Hg

Humidity: 63%

Dew Point: 75 °F

Location of DothanLocation

Past Weather in Dothan — Graph

°F

Dothan Temperature Yesterday

Maximum temperature yesterday: 91 °F (at 4:53 pm)
Minimum temperature yesterday: 75 °F (at 4:53 am)
Average temperature yesterday: 80 °F

High & Low Weather Summary for the Past Weeks

 TemperatureHumidityPressure
High96 °F (Jun 29, 3:53 pm)100% (Jul 5, 2:53 am)30.23 "Hg (Jul 5, 2:53 am)
Low72 °F (Jul 1, 1:27 pm)44% (Jun 29, 3:53 pm)29.87 "Hg (Jul 4, 5:53 pm)
Average80 °F81%30.01 "Hg
* Reported Jun 24 3:13 pm — Jul 9 3:53 pm, Dothan. Weather by CustomWeather, © 2020

Note: Actual official high and low records may vary slightly from our data, if they occured in-between our weather recording intervals... More about our weather records

Dothan Weather History for the Previous 24 Hours

Scroll right to see more
 ConditionsComfort  
Time TempWeatherWind HumidityBarometerVisibility
3:53 pm
Thu, Jul 9
89 °FScattered clouds.9 mph63%29.92 "Hg10 mi
2:53 pm87 °FScattered clouds.5 mph65%29.94 "Hg10 mi
1:53 pm88 °FMore clouds than sun.7 mph63%29.95 "Hg10 mi
12:53 pm87 °FPartly sunny.6 mph65%29.96 "Hg10 mi
12:29 pm87 °FPartly sunny.8 mph67%29.99 "Hg10 mi
11:53 am86 °FPassing clouds.3 mph67%29.97 "Hg10 mi
10:53 am84 °FPassing clouds.10 mph70%29.98 "Hg10 mi
9:53 am82 °FSunny.10 mph72%29.99 "Hg10 mi
8:53 am80 °FSunny.12 mph74%29.99 "Hg10 mi
7:53 am77 °FSunny.8 mph82%29.99 "Hg10 mi
6:53 am74 °FBroken clouds.9 mph91%29.98 "Hg10 mi
5:53 am73 °FPartly sunny.6 mph94%29.96 "Hg10 mi
4:53 am73 °FPassing clouds.6 mph94%29.94 "Hg10 mi
3:53 am73 °FClear.7 mph94%29.93 "Hg10 mi
2:53 am73 °FClear.5 mph94%29.93 "Hg10 mi
1:53 am74 °FClear.6 mph94%29.93 "Hg10 mi
12:53 am74 °FClear.6 mph91%29.95 "Hg10 mi
11:53 pm
Wed, Jul 8
75 °FClear.8 mph90%29.96 "Hg10 mi
10:53 pm76 °FClear.7 mph88%29.96 "Hg10 mi
9:53 pm77 °FClear.8 mph90%29.96 "Hg10 mi
8:53 pm77 °FLight rain. Passing clouds.7 mph90%29.95 "Hg10 mi
7:53 pm81 °FPassing clouds.9 mph77%29.95 "Hg10 mi
6:53 pm87 °FSunny.8 mph63%29.92 "Hg10 mi
5:53 pm90 °FSunny.9 mph57%29.91 "Hg10 mi
Weather by CustomWeather, © 2020

See weather overview